Tracking 23764 objects as of 17-Oct-2021
HD Live streaming from Space Station
objects crossing your sky now

IRIDIUM 33 DEB

Track IRIDIUM 33 DEB now!
10-day predictions


NORAD ID: 33873
Int'l Code: 1997-051AS
Perigee: 687.2 km
Apogee: 714.1 km
Inclination: 86.4 °
Period: 98.6 minutes
Semi major axis: 7071 km
RCS: 0.1366 m2 (medium)
Launch date: September 14, 1997
Source: United States (US)
Launch site: TYURATAM MISSILE AND SPACE COMPLEX (TTMTR)

Note: This is SATELLITE DEBRIS
aabbcc
Your satellite tracking list
Your tracking list is empty




NASA's NSSDC Master Catalog

Two Line Element Set (TLE):
1 33873U 97051AS  21289.30918512  .00002044  00000-0  42163-3 0  9996
2 33873  86.3646 287.0069 0019046 248.8928 111.0246 14.59904335670249
Source of the keplerian elements: AFSPC